This is the latest recevied weather packets stored in our database for station/object DW9280. If no packets are shown the sender has not sent any weather packets the latest 10 day(s).
| Time | Temp. | Humidity | Pressure | Rain* | Wind** | Luminosity | Snow |
|---|---|---|---|---|---|---|---|
| 1787907548 | 20.56° C | 93% | 1006.4 hPa | 0 mm | - | 243 W/m² | - |
| 1787907249 | 20.56° C | 94% | 1006.5 hPa | 0 mm | - | 459 W/m² | - |
| 1787906949 | 20° C | 95% | 1006.5 hPa | 0 mm | - | 420 W/m² | - |
| 1787906647 | 20° C | 96% | 1006.4 hPa | 0 mm | - | 267 W/m² | - |
| 1787906348 | 19.44° C | 96% | 1006.4 hPa | 0 mm | - | 301 W/m² | - |
| 1787906046 | 19.44° C | 96% | 1006.4 hPa | 0 mm | - | 204 W/m² | - |
| 1787905784 | 19.44° C | 97% | 1006.4 hPa | 0 mm | - | 171 W/m² | - |
| 1787905572 | 19.44° C | 97% | 1006.4 hPa | 0 mm | - | 188 W/m² | - |
| 1787905148 | 19.44° C | 97% | 1006.2 hPa | 0 mm | - | 195 W/m² | - |
| 1787904848 | 19.44° C | 97% | 1006.1 hPa | 0 mm | - | 153 W/m² | - |
| 1787904672 | 19.44° C | 97% | 1006.1 hPa | 0 mm | - | 148 W/m² | - |
| 1787904248 | 19.44° C | 97% | 1006.1 hPa | 0 mm | - | 149 W/m² | - |
| 1787903947 | 18.89° C | 97% | 1006.1 hPa | 0 mm | - | 132 W/m² | - |
| 1787903649 | 19.44° C | 97% | 1006.2 hPa | 0 mm | - | 102 W/m² | - |
| 1787903348 | 19.44° C | 97% | 1006.2 hPa | 0 mm | - | 88 W/m² | - |
| 1787903047 | 19.44° C | 97% | 1006.2 hPa | 0 mm | - | 86 W/m² | - |
| 1787902781 | 19.44° C | 97% | 1006.2 hPa | 0 mm | - | 113 W/m² | - |
| 1787902572 | 19.44° C | 97% | 1006.2 hPa | 0 mm | - | 167 W/m² | - |
| 1787902146 | 19.44° C | 97% | 1006 hPa | 0 mm | - | 230 W/m² | - |
| 1787901846 | 19.44° C | 97% | 1006.1 hPa | 0 mm | - | 230 W/m² | - |
| 1787901547 | 18.89° C | 97% | 1006 hPa | 0 mm | - | 169 W/m² | - |
| 1787901249 | 18.89° C | 97% | 1006.1 hPa | 0 mm | - | 127 W/m² | - |
| 1787900947 | 18.89° C | 97% | 1006.2 hPa | 0 mm | - | 111 W/m² | - |
| 1787900649 | 18.89° C | 97% | 1006.3 hPa | 0 mm | - | 121 W/m² | - |
| 1787900348 | 18.89° C | 97% | 1006.3 hPa | 0 mm | - | 104 W/m² | - |
* Rain latest hour (hover to see other rain measurements)
** Current wind speed in m/s (hover to see current wind gust speed)